weather.gov     
National Weather Service

Regional Weather Roundup
NWS Homepage
This page is being discontinued on March 12, 2014.
The same data is available at this site. Please update your bookmarks.
Thank you, and we apologize for the inconvenience.
Please send an email to SR-SRH.Webmaster@noaa.gov with any concerns.


Current Version
Previous Version:    01  02  03  04  05  06  07  08  09  10  11  12  13  14  15  16  17  18  19  20  21  22  23  24  25  26  27  
[Printable]
445
ASUS45 KSLC 160010
RWRUT

UTAH REGIONAL WEATHER ROUNDUP
NATIONAL WEATHER SERVICE SALT LAKE CITY UT
600 PM MDT MON SEP 15 2014

UTZ001>011-023>025-160100-

NORTHERN UTAH

CITY           SKY/WX    TMP DP  RH WIND       PRES   REMARKS
HILL AFB       SUNNY     85  36  17 N3        30.11S
LOGAN          SUNNY     86  39  19 S3        30.07S
OGDEN          SUNNY     87  35  15 N5        30.07F
PROVO AIRPORT  MOSUNNY   86  41  20 N6        30.09S
SALT LAKE CITY MOSUNNY   88  35  15 NW7       30.06S
VERNAL         MOSUNNY   82  37  20 S3        30.15S
WENDOVER       MOSUNNY   88  34  14 SE7       30.05F
HEBER CITY     MOSUNNY   82  36  18 SW8       30.16S
WEST JORDAN    SUNNY     84  37  18 N3        30.10F

$$

UTZ012>022-026-027-160100-

SOUTHERN UTAH

CITY           SKY/WX    TMP DP  RH WIND       PRES   REMARKS
BRYCE CANYON   MOSUNNY   74  37  26 SE3       30.32S
CEDAR CITY     MOSUNNY   85  35  16 W3        30.14S
MILFORD        PTSUNNY   87  35  15 CALM      30.10S
MOAB/CYNLANDS  SUNNY     90  33  13 CALM      30.04F
PRICE          MOSUNNY   83  32  16 S8        30.18R
ST GEORGE      PTCLDY    97  41  14 CALM      29.93F HX  92
KANAB            N/A     90  32  12 S8        30.11S

$$

REGIONAL REPORTS     COLORADO/ARIZONA

CITY           SKY/WX    TMP DP  RH WIND       PRES   REMARKS
CRAIG, CO      MOSUNNY   76  40  27 SW8       30.22S
GRAND JUNCTION MOSUNNY   85  40  20 W7        30.11F
RIFLE          PTSUNNY   81  37  20 W6        30.18S
MONTROSE       MOSUNNY   83  34  17 NW7       30.19S
CORTEZ         SUNNY     84  39  20 S8        30.18F
PAGE, AZ       SUNNY     93  36  13 NE5       30.04F
GRAND CANYON   SUNNY     81  38  21 VRB7      30.24S
KINGMAN        SUNNY     96  44  16 N6        29.96F HX  92
FLAGSTAFF      PTSUNNY   74  42  31 NW5       30.28R

$$

REGIONAL REPORTS    NEVADA/IDAHO/WYOMING

CITY           SKY/WX    TMP DP  RH WIND       PRES   REMARKS
LAS VEGAS, NV  MOSUNNY  101  41  12 S6        29.81F HX  96
ELY            MOSUNNY   82  35  18 SE8       30.18S
ELKO           SUNNY     88  26  10 S3        30.07F
POCATELLO, ID  MOSUNNY   87  29  12 W10       30.07F
BURLEY         SUNNY     85  39  19 CALM      30.03F
EVANSTON, WY   SUNNY     76  26  15 W15G26    30.28R
ROCK SPRINGS   MOSUNNY   75  31  19 SW10      30.23S

$$




U.S. Dept. of Commerce
NOAA National Weather Service
1325 East West Highway
Silver Spring, MD 20910
E-mail: w-nws.webmaster@noaa.gov
Page last modified: May 16, 2007
NATIONAL WEATHER SERVICE: for Safety, for Work, for Fun - FOR LIFE